HULIANWANG DIGUI 16F

Last updated on Sat Dec 13 2025 00:02:09 GMT+0000 (Coordinated Universal Time)

1 67064U 25295F 25346.21275943 -.00000096 00000+0 26252-4 0 9995 2 67064 50.0027 14.4596 0014902 247.8107 112.1227 14.26957674 44
UTC large
Height (km)
Speed (km/s)
/
Latitude / Longitude
Inclination (degrees)
Orbital Period (minutes)
Azimuth
Elevation
Range (km)
Doppler Factor

Next 0 passes for location: London (51.5072 / 0.1276)

Sorry there are no passes over London.